Timestamp (UTC),Temp / °C,Chill / °C,HIndex / °C,Humid%,Dewpt / °C,Wind / ms¯¹,HiWind / ms¯¹,Winddir / °,Rain / mm,RainRate / mmhr¯¹,Pressure / hPa,InsideTemp / °C,InsideHumid%,Radiation / Wm¯²,UV
2016-05-02 00:00:00,11.8,11.8,11.8,86.0,9.5,2.7,5.8,180,0.0,0.0,1010.3,20.2,41.0,0,0
2016-05-02 00:05:00,11.8,11.8,11.8,86.0,9.5,2.7,7.2,180,0.0,0.0,1010.3,20.2,41.0,0,0
2016-05-02 00:10:00,11.8,11.8,11.8,86.0,9.5,2.7,6.7,180,0.0,0.0,1010.3,20.2,41.0,0,0
2016-05-02 00:15:00,11.8,11.8,11.8,86.0,9.5,2.2,5.4,180,0.0,0.0,1010.2,20.2,43.0,0,0
2016-05-02 00:20:00,11.8,11.8,11.8,86.0,9.5,3.1,5.8,180,0.0,0.0,1010.1,20.1,41.0,0,0
2016-05-02 00:25:00,11.8,11.8,11.8,86.0,9.5,2.7,4.9,180,0.0,0.0,1010.0,20.1,42.0,0,0
2016-05-02 00:30:00,11.8,11.8,11.8,86.0,9.5,3.1,8.0,180,0.0,0.0,1010.0,20.1,41.0,0,0
2016-05-02 00:35:00,11.8,11.8,11.8,86.0,9.5,3.6,8.0,180,0.0,0.0,1009.9,20.1,41.0,0,0
2016-05-02 00:40:00,11.8,11.8,11.8,86.0,9.5,3.1,7.2,180,0.0,0.0,1009.8,20.1,41.0,0,0
2016-05-02 00:45:00,11.8,11.8,11.8,85.0,9.3,3.1,5.8,225,0.0,0.0,1009.8,20.2,41.0,0,0
2016-05-02 00:50:00,11.8,11.8,11.8,86.0,9.5,3.6,8.9,225,0.0,0.0,1009.8,20.2,41.0,0,0
2016-05-02 00:55:00,11.8,11.8,11.8,86.0,9.5,3.6,6.7,202.5,0.0,0.0,1009.8,20.2,41.0,0,0
2016-05-02 01:00:00,11.8,11.8,11.8,86.0,9.5,4.0,8.5,202.5,0.0,0.0,1009.7,20.2,41.0,0,0
2016-05-02 01:05:00,11.8,11.8,11.8,86.0,9.5,3.6,6.7,202.5,0.0,0.0,1009.7,20.2,41.0,0,0
2016-05-02 01:10:00,11.8,11.8,11.8,86.0,9.5,3.6,8.0,202.5,0.0,0.0,1009.4,20.2,41.0,0,0
2016-05-02 01:15:00,11.8,11.8,11.8,86.0,9.5,4.5,10.3,225,0.0,0.0,1009.4,20.2,41.0,0,0
2016-05-02 01:20:00,11.8,11.8,11.8,86.0,9.5,3.6,8.0,225,0.0,0.0,1009.2,20.2,43.0,0,0
2016-05-02 01:25:00,11.8,11.8,11.8,86.0,9.6,3.6,8.9,225,0.0,0.0,1009.2,20.1,42.0,0,0
2016-05-02 01:30:00,11.8,11.8,11.8,86.0,9.5,3.6,9.4,225,0.0,0.0,1009.2,20.1,43.0,0,0
2016-05-02 01:35:00,11.8,11.8,11.8,85.0,9.4,4.0,9.4,225,0.0,0.0,1009.3,20.0,42.0,0,0
2016-05-02 01:40:00,11.8,11.8,11.8,85.0,9.4,3.6,7.2,202.5,0.0,0.0,1009.2,20.1,41.0,0,0
2016-05-02 01:45:00,11.8,11.8,11.8,85.0,9.4,4.0,7.2,225,0.0,0.0,1009.1,20.1,40.0,0,0
2016-05-02 01:50:00,11.8,11.8,11.8,85.0,9.4,2.7,4.9,225,0.0,0.0,1009.2,20.2,42.0,0,0
2016-05-02 01:55:00,11.8,11.8,11.8,85.0,9.4,3.1,6.3,225,0.0,0.0,1009.1,20.2,42.0,0,0
2016-05-02 02:00:00,11.8,11.8,11.8,85.0,9.4,3.1,5.8,225,0.0,0.0,1009.1,20.2,40.0,0,0
2016-05-02 02:05:00,11.8,11.8,11.8,85.0,9.4,2.7,4.5,202.5,0.0,0.0,1009.0,20.2,41.0,0,0
2016-05-02 02:10:00,11.8,11.8,11.8,85.0,9.3,2.7,5.4,225,0.0,0.0,1008.9,20.2,41.0,0,0
2016-05-02 02:15:00,11.8,11.8,11.8,85.0,9.3,3.6,8.0,225,0.0,0.0,1008.8,20.2,41.0,0,0
2016-05-02 02:20:00,11.8,11.8,11.8,85.0,9.3,3.6,8.9,202.5,0.0,0.0,1008.7,20.2,41.0,0,0
2016-05-02 02:25:00,11.8,11.8,11.8,85.0,9.3,2.2,4.9,202.5,0.0,0.0,1008.7,20.1,42.0,0,0
2016-05-02 02:30:00,11.7,11.7,11.7,85.0,9.3,2.2,5.4,202.5,0.0,0.0,1008.7,20.1,43.0,0,0
2016-05-02 02:35:00,11.7,11.7,11.7,85.0,9.3,2.7,5.4,202.5,0.0,0.0,1008.6,20.0,41.0,0,0
2016-05-02 02:40:00,11.7,11.7,11.7,85.0,9.3,2.2,6.7,180,0.0,0.0,1008.6,20.0,41.0,0,0
2016-05-02 02:45:00,11.7,11.7,11.7,85.0,9.2,2.2,5.4,180,0.0,0.0,1008.6,20.0,42.0,0,0
2016-05-02 02:50:00,11.7,11.7,11.7,84.0,9.1,1.3,3.1,202.5,0.0,0.0,1008.4,20.0,41.0,0,0
2016-05-02 02:55:00,11.6,11.6,11.6,84.0,9.0,1.3,4.9,202.5,0.0,0.0,1008.3,20.0,42.0,0,0
2016-05-02 03:00:00,11.6,11.6,11.6,85.0,9.1,1.3,2.7,180,0.0,0.0,1008.3,19.9,42.0,0,0
2016-05-02 03:05:00,11.6,11.6,11.6,85.0,9.1,1.8,4.5,180,0.0,0.0,1008.1,20.0,41.0,0,0
2016-05-02 03:10:00,11.6,11.6,11.6,85.0,9.1,2.2,4.9,225,0.0,0.0,1008.2,20.0,40.0,0,0
2016-05-02 03:15:00,11.6,11.6,11.6,85.0,9.1,2.2,4.5,202.5,0.0,0.0,1008.2,20.1,40.0,0,0
2016-05-02 03:20:00,11.5,11.5,11.5,85.0,9.1,2.7,6.3,180,0.0,0.0,1008.2,20.1,41.0,0,0
2016-05-02 03:25:00,11.5,11.5,11.5,84.0,8.9,2.2,7.2,225,0.0,0.0,1008.1,20.1,41.0,0,0
2016-05-02 03:30:00,11.5,11.5,11.5,84.0,8.9,1.3,4.0,180,0.0,0.0,1007.8,20.0,41.0,0,0
2016-05-02 03:35:00,11.4,11.4,11.4,84.0,8.8,2.2,7.2,225,0.0,0.0,1007.7,20.0,40.0,0,0
2016-05-02 03:40:00,11.4,11.4,11.4,84.0,8.8,1.8,4.5,225,0.0,0.0,1007.6,20.0,40.0,0,0
2016-05-02 03:45:00,11.4,11.4,11.4,84.0,8.8,1.8,4.9,180,0.0,0.0,1007.6,20.1,40.0,0,0
2016-05-02 03:50:00,11.4,11.4,11.4,84.0,8.8,2.2,4.0,202.5,0.0,0.0,1007.6,20.0,41.0,0,0
2016-05-02 03:55:00,11.4,11.4,11.4,84.0,8.8,1.8,4.9,202.5,0.0,0.0,1007.4,20.0,40.0,0,0
2016-05-02 04:00:00,11.4,11.4,11.4,84.0,8.8,1.8,5.4,180,0.0,0.0,1007.3,20.0,41.0,0,0
2016-05-02 04:05:00,11.4,11.4,11.4,84.0,8.8,2.7,5.4,180,0.0,0.0,1007.3,20.0,41.0,0,0
2016-05-02 04:10:00,11.5,11.5,11.5,84.0,8.9,3.1,5.8,202.5,0.0,0.0,1007.2,20.0,41.0,0,0
2016-05-02 04:15:00,11.5,11.5,11.5,83.0,8.7,3.1,5.4,225,0.0,0.0,1007.1,19.9,41.0,0,0
2016-05-02 04:20:00,11.6,11.6,11.6,83.0,8.8,3.1,8.5,225,0.0,0.0,1007.0,19.9,41.0,0,0
2016-05-02 04:25:00,11.6,11.6,11.6,83.0,8.8,3.1,6.3,202.5,0.0,0.0,1006.9,19.9,41.0,0,0
2016-05-02 04:30:00,11.6,11.6,11.6,83.0,8.8,3.6,6.3,202.5,0.0,0.0,1006.9,19.9,41.0,0,0
2016-05-02 04:35:00,11.6,11.6,11.6,83.0,8.8,2.7,7.2,180,0.0,0.0,1006.9,19.9,41.0,0,0
2016-05-02 04:40:00,11.6,11.6,11.6,82.0,8.6,3.1,8.5,202.5,0.0,0.0,1006.8,19.9,41.0,0,0
2016-05-02 04:45:00,11.6,11.6,11.6,82.0,8.6,3.1,5.4,202.5,0.0,0.0,1006.6,19.9,41.0,0,0
2016-05-02 04:50:00,11.7,11.7,11.7,82.0,8.7,3.6,7.2,202.5,0.0,0.0,1006.6,19.9,42.0,0,0
2016-05-02 04:55:00,11.7,11.7,11.7,82.0,8.7,3.6,7.2,225,0.0,0.0,1006.4,19.9,41.0,3,0
2016-05-02 05:00:00,11.7,11.7,11.7,82.0,8.8,4.0,8.0,202.5,0.0,0.0,1006.6,19.8,41.0,7,0
2016-05-02 05:05:00,11.8,11.8,11.8,81.0,8.6,4.5,8.9,225,0.0,0.0,1006.6,19.8,42.0,11,0
2016-05-02 05:10:00,11.8,11.8,11.8,81.0,8.7,4.5,12.5,225,0.0,0.0,1006.5,19.8,41.0,20,0
2016-05-02 05:15:00,11.9,11.9,11.9,80.0,8.5,4.5,9.8,225,0.0,0.0,1006.4,19.8,41.0,28,0
2016-05-02 05:20:00,11.9,11.9,11.9,80.0,8.6,3.6,8.0,225,0.0,0.0,1006.4,19.9,42.0,33,0
2016-05-02 05:25:00,12.0,12.0,12.0,80.0,8.7,4.5,8.9,225,0.0,0.0,1006.4,19.8,41.0,36,0
2016-05-02 05:30:00,12.1,12.1,12.1,79.0,8.5,4.0,8.5,202.5,0.0,0.0,1006.3,19.8,42.0,42,0
2016-05-02 05:35:00,12.1,12.1,12.1,79.0,8.5,3.6,8.5,202.5,0.0,0.0,1006.1,19.8,41.0,33,0
2016-05-02 05:40:00,12.1,12.1,12.1,79.0,8.5,4.5,8.9,202.5,0.0,0.0,1006.2,19.8,42.0,51,0
2016-05-02 05:45:00,12.1,12.1,12.1,79.0,8.5,4.0,9.8,202.5,0.0,0.0,1006.1,19.8,41.0,67,0
2016-05-02 05:50:00,12.1,12.1,12.1,79.0,8.6,4.0,8.0,202.5,0.0,0.0,1006.0,19.8,42.0,77,0
2016-05-02 05:55:00,12.1,12.1,12.1,79.0,8.6,3.6,6.7,202.5,0.0,0.0,1005.9,19.8,42.0,77,0
2016-05-02 06:00:00,12.2,12.2,12.2,79.0,8.6,3.6,8.5,202.5,0.0,0.0,1006.1,19.8,42.0,66,0
2016-05-02 06:05:00,12.2,12.2,12.2,79.0,8.6,3.6,8.0,180,0.0,0.0,1006.0,19.8,42.0,89,0
2016-05-02 06:10:00,12.2,12.2,12.2,79.0,8.6,3.1,8.0,202.5,0.0,0.0,1006.0,19.9,41.0,88,0
2016-05-02 06:15:00,12.2,12.2,12.2,79.0,8.7,2.7,6.3,180,0.0,0.0,1005.9,19.9,41.0,67,0
2016-05-02 06:20:00,12.2,12.2,12.2,78.0,8.5,4.0,8.9,202.5,0.0,0.0,1005.9,20.0,41.0,40,0
2016-05-02 06:25:00,12.3,12.3,12.3,78.0,8.6,2.7,6.3,202.5,0.0,0.0,1005.8,19.9,41.0,31,0
2016-05-02 06:30:00,12.3,12.3,12.3,78.0,8.6,4.0,8.5,202.5,0.0,0.0,1005.8,19.9,41.0,40,0
2016-05-02 06:35:00,12.3,12.3,12.3,78.0,8.6,3.1,8.5,202.5,0.0,0.0,1005.6,19.9,42.0,47,0
2016-05-02 06:40:00,12.3,12.3,12.3,78.0,8.6,4.0,8.5,202.5,0.0,0.0,1005.6,19.9,42.0,57,0
2016-05-02 06:45:00,12.3,12.3,12.3,78.0,8.6,2.7,8.0,180,0.0,0.0,1005.3,19.9,41.0,71,0
2016-05-02 06:50:00,12.3,12.3,12.3,78.0,8.6,4.0,8.5,180,0.0,0.0,1005.3,19.9,42.0,78,0
2016-05-02 06:55:00,12.4,12.4,12.4,77.0,8.5,4.0,9.4,202.5,0.0,0.0,1005.1,19.9,41.0,96,0
2016-05-02 07:00:00,12.5,12.5,12.5,77.0,8.6,3.6,10.7,202.5,0.0,0.0,1005.0,20.0,41.0,115,0
2016-05-02 07:05:00,12.6,12.6,12.6,77.0,8.6,3.1,8.0,180,0.0,0.0,1004.9,20.1,41.0,136,0.3
2016-05-02 07:10:00,12.7,12.7,12.7,76.0,8.5,4.0,10.7,202.5,0.0,0.0,1004.9,20.2,41.0,105,0
2016-05-02 07:15:00,12.7,12.7,12.7,76.0,8.6,3.6,6.7,202.5,0.0,0.0,1004.8,20.2,41.0,72,0
2016-05-02 07:20:00,12.7,12.7,12.7,76.0,8.6,3.6,8.9,180,0.0,0.0,1004.7,20.2,41.0,88,0
2016-05-02 07:25:00,12.8,12.8,12.8,75.0,8.5,3.6,9.4,180,0.0,0.0,1004.6,20.1,41.0,99,0
2016-05-02 07:30:00,12.9,12.9,12.9,75.0,8.6,4.0,8.9,202.5,0.0,0.0,1004.6,20.2,41.0,125,0.5
2016-05-02 07:35:00,12.9,12.9,12.9,74.0,8.4,4.5,11.2,225,0.0,0.0,1004.6,20.2,41.0,137,0.6
2016-05-02 07:40:00,13.1,13.1,13.1,74.0,8.5,4.0,9.4,180,0.0,0.0,1004.6,20.2,40.0,150,0.6
2016-05-02 07:45:00,13.1,13.1,13.1,74.0,8.6,3.6,11.6,202.5,0.0,0.0,1004.5,20.3,40.0,165,0.7
2016-05-02 07:50:00,13.2,13.2,13.2,74.0,8.6,4.0,10.3,202.5,0.0,0.0,1004.3,20.3,40.0,170,0.7
2016-05-02 07:55:00,13.2,13.2,13.2,73.0,8.5,4.5,8.5,225,0.0,0.0,1004.4,20.4,40.0,160,0.7
2016-05-02 08:00:00,13.3,13.3,13.3,73.0,8.5,4.5,9.8,202.5,0.0,0.0,1004.3,20.4,41.0,172,0.8
2016-05-02 08:05:00,13.3,13.3,13.3,73.0,8.5,5.4,11.2,225,0.0,0.0,1004.3,20.5,40.0,165,0.7
2016-05-02 08:10:00,13.3,13.3,13.3,73.0,8.5,4.9,9.8,202.5,0.0,0.0,1004.3,20.5,40.0,157,0.8
2016-05-02 08:15:00,13.3,13.3,13.3,73.0,8.5,5.4,11.2,225,0.0,0.0,1004.3,20.6,40.0,162,0.8
2016-05-02 08:20:00,13.3,13.3,13.3,73.0,8.5,4.9,12.1,202.5,0.0,0.0,1004.4,20.6,40.0,160,0.7
2016-05-02 08:25:00,13.3,13.3,13.3,73.0,8.5,5.8,10.3,225,0.0,0.0,1004.4,20.7,40.0,120,0.5
2016-05-02 08:30:00,13.2,13.2,13.2,73.0,8.5,4.5,10.7,225,0.0,0.0,1004.3,20.8,40.0,128,0.5
2016-05-02 08:35:00,13.2,13.2,13.2,73.0,8.4,5.4,11.2,225,0.0,0.0,1004.3,20.8,40.0,153,0.7
2016-05-02 08:40:00,13.2,13.2,13.2,73.0,8.5,4.9,13.0,225,0.0,0.0,1004.1,20.8,40.0,143,0.7
2016-05-02 08:45:00,13.3,13.3,13.3,73.0,8.5,4.0,9.8,180,0.0,0.0,1004.3,20.8,40.0,126,0.5
2016-05-02 08:50:00,13.3,13.3,13.3,73.0,8.5,4.9,10.3,225,0.0,0.0,1004.2,20.8,40.0,92,0
2016-05-02 08:55:00,13.3,13.3,13.3,72.0,8.3,5.4,10.7,225,0.0,0.0,1004.3,20.7,40.0,79,0
2016-05-02 09:00:00,13.3,13.3,13.3,73.0,8.5,4.0,11.6,202.5,0.0,0.0,1004.3,20.7,40.0,71,0
2016-05-02 09:05:00,13.2,13.2,13.2,73.0,8.5,4.9,10.3,225,0.0,0.0,1004.3,20.7,40.0,80,0
2016-05-02 09:10:00,13.2,13.2,13.2,72.0,8.3,5.4,12.5,225,0.0,0.0,1004.4,20.6,39.0,89,0.1
2016-05-02 09:15:00,13.3,13.3,13.3,72.0,8.3,5.4,10.3,225,0.0,0.0,1004.2,20.7,40.0,189,1.1
2016-05-02 09:20:00,13.3,13.3,13.3,72.0,8.4,5.8,13.0,225,0.0,0.0,1004.0,20.8,40.0,309,2.1
2016-05-02 09:25:00,13.7,13.7,13.7,71.0,8.6,4.9,10.7,225,0.0,0.0,1004.0,20.9,39.0,347,2.1
2016-05-02 09:30:00,13.8,13.8,13.8,70.0,8.5,6.3,15.2,225,0.0,0.0,1004.1,21.2,39.0,347,2.1
2016-05-02 09:35:00,14.1,14.1,14.1,70.0,8.7,4.9,11.6,225,0.0,0.0,1004.1,21.2,39.0,289,2
2016-05-02 09:40:00,14.0,14.0,14.0,70.0,8.6,5.8,11.2,202.5,0.0,0.0,1004.2,21.3,38.0,164,0.9
2016-05-02 09:45:00,13.9,13.9,13.9,70.0,8.5,5.8,10.7,225,0.0,0.0,1004.2,21.3,39.0,130,0.7
2016-05-02 09:50:00,13.8,13.8,13.8,70.0,8.4,4.5,9.4,225,0.0,0.0,1004.1,21.2,38.0,80,0
2016-05-02 09:55:00,13.7,13.7,13.7,70.0,8.3,4.5,12.5,180,0.0,0.0,1004.3,21.2,39.0,57,0
2016-05-02 10:00:00,13.6,13.6,13.6,71.0,8.5,4.9,10.3,202.5,0.0,0.0,1004.2,21.2,39.0,66,0
2016-05-02 10:05:00,13.6,13.6,13.6,71.0,8.4,4.0,10.3,202.5,0.0,0.0,1004.2,21.1,39.0,57,0
2016-05-02 10:10:00,13.6,13.6,13.6,71.0,8.4,4.0,9.4,202.5,0.0,0.0,1004.0,21.1,39.0,43,0
2016-05-02 10:15:00,13.6,13.6,13.6,71.0,8.4,4.0,8.0,202.5,0.0,0.0,1003.9,20.9,39.0,45,0
2016-05-02 10:20:00,13.6,13.6,13.6,71.0,8.4,4.0,12.5,157.5,0.0,0.0,1003.9,20.9,39.0,52,0
2016-05-02 10:25:00,13.6,13.6,13.6,71.0,8.4,5.4,11.6,225,0.0,0.0,1003.9,20.9,39.0,67,0.1
2016-05-02 10:30:00,13.6,13.6,13.6,71.0,8.4,4.9,11.2,202.5,0.0,0.0,1003.8,20.8,39.0,74,0.3
2016-05-02 10:35:00,13.6,13.6,13.6,71.0,8.5,4.9,10.7,225,0.0,0.0,1003.8,20.8,39.0,91,0.6
2016-05-02 10:40:00,13.6,13.6,13.6,72.0,8.7,4.5,7.2,202.5,0.0,0.0,1003.8,20.8,39.0,83,0.4
2016-05-02 10:45:00,13.6,13.6,13.6,72.0,8.7,4.0,9.8,202.5,0.0,0.0,1003.6,20.8,39.0,79,0.3
2016-05-02 10:50:00,13.6,13.6,13.6,72.0,8.7,4.0,10.3,225,0.0,0.0,1003.7,20.8,39.0,74,0
2016-05-02 10:55:00,13.5,13.5,13.5,74.0,9.0,5.8,11.2,225,0.0,0.0,1003.6,20.8,41.0,97,0.6
2016-05-02 11:00:00,13.3,13.3,13.3,75.0,9.0,4.5,10.3,202.5,0.0,0.0,1003.6,20.8,40.0,73,0.2
2016-05-02 11:05:00,13.1,13.1,13.1,77.0,9.2,5.4,10.3,225,0.1,0.0,1003.9,20.8,40.0,66,0
2016-05-02 11:10:00,12.9,12.9,12.9,79.0,9.3,2.7,4.9,202.5,0.2,3.6,1004.1,20.8,42.0,41,0
2016-05-02 11:15:00,12.5,12.5,12.5,80.0,9.1,3.6,8.9,270,0.1,4.2,1004.3,20.6,43.0,79,0.4
2016-05-02 11:20:00,12.0,12.0,12.0,81.0,8.8,2.7,6.7,270,0.1,1.5,1004.6,20.4,44.0,188,1.3
2016-05-02 11:25:00,11.6,11.6,11.6,82.0,8.6,2.7,6.7,270,0.0,0.8,1004.6,20.3,44.0,235,1.8
2016-05-02 11:30:00,11.4,11.4,11.4,82.0,8.4,2.7,5.4,315,0.0,0.5,1004.6,20.2,44.0,218,1.7
2016-05-02 11:35:00,11.2,11.2,11.2,83.0,8.4,2.2,6.7,292.5,0.0,0.4,1004.6,20.2,45.0,229,1.8
2016-05-02 11:40:00,11.1,11.1,11.1,84.0,8.5,2.2,4.5,337.5,0.0,0.0,1004.5,20.1,43.0,200,1.8
2016-05-02 11:45:00,10.8,10.8,10.8,83.0,8.1,3.6,6.7,270,0.0,0.0,1004.6,20.1,43.0,297,2.7
2016-05-02 11:50:00,10.7,10.7,10.7,83.0,7.9,3.1,5.4,315,0.0,0.0,1004.7,20.0,42.0,260,2.1
2016-05-02 11:55:00,10.6,10.6,10.6,82.0,7.6,4.0,8.9,292.5,0.0,0.0,1004.7,20.0,42.0,175,1.3
2016-05-02 12:00:00,10.6,10.6,10.6,82.0,7.6,1.8,8.5,225,0.0,0.0,1004.7,20.0,42.0,232,1.8
2016-05-02 12:05:00,10.6,10.6,10.6,82.0,7.6,1.8,6.3,292.5,0.0,0.0,1004.7,20.0,42.0,227,2
2016-05-02 12:10:00,10.8,10.8,10.8,82.0,7.8,0.9,4.0,202.5,0.0,0.0,1004.7,20.1,41.0,345,2.6
2016-05-02 12:15:00,10.8,10.8,10.8,81.0,7.7,2.2,8.9,202.5,0.0,0.0,1004.7,20.4,41.0,211,1.5
2016-05-02 12:20:00,10.8,10.8,10.8,80.0,7.5,1.8,4.9,247.5,0.0,0.0,1004.8,20.5,40.0,188,1.4
2016-05-02 12:25:00,10.9,10.9,10.9,78.0,7.2,2.2,5.4,225,0.0,0.0,1004.8,20.4,40.0,195,1.5
2016-05-02 12:30:00,10.9,10.9,10.9,77.0,7.1,2.2,8.0,202.5,0.0,0.0,1004.9,20.4,39.0,219,1.5
2016-05-02 12:35:00,11.1,11.1,11.1,75.0,6.8,2.7,5.8,247.5,0.0,0.0,1004.8,20.4,39.0,236,1.6
2016-05-02 12:40:00,11.2,11.2,11.2,73.0,6.5,2.7,5.4,247.5,0.0,0.0,1004.8,20.5,39.0,308,2.1
2016-05-02 12:45:00,11.3,11.3,11.3,73.0,6.6,1.8,5.4,225,0.0,0.0,1004.9,20.6,39.0,257,1.8
2016-05-02 12:50:00,11.5,11.5,11.5,72.0,6.6,2.2,5.4,225,0.0,0.0,1004.9,20.6,38.0,246,1.6
2016-05-02 12:55:00,11.6,11.6,11.6,70.0,6.3,2.7,6.3,202.5,0.0,0.0,1005.0,20.7,38.0,180,1.2
2016-05-02 13:00:00,11.7,11.7,11.7,69.0,6.2,2.2,6.3,270,0.0,0.0,1005.0,20.6,38.0,220,1.4
2016-05-02 13:05:00,11.7,11.7,11.7,69.0,6.2,1.8,4.0,202.5,0.0,0.0,1004.9,20.7,38.0,266,1.9
2016-05-02 13:10:00,11.8,11.8,11.8,69.0,6.3,2.2,4.9,202.5,0.0,0.0,1005.0,20.8,38.0,318,2.1
2016-05-02 13:15:00,11.9,11.9,11.9,68.0,6.2,2.2,6.3,225,0.0,0.0,1005.0,20.9,37.0,292,1.9
2016-05-02 13:20:00,12.1,12.1,12.1,68.0,6.3,2.2,7.2,225,0.0,0.0,1005.0,20.9,37.0,312,2
2016-05-02 13:25:00,12.2,12.2,12.2,66.0,6.0,3.1,6.7,225,0.0,0.0,1005.0,20.9,37.0,439,3.2
2016-05-02 13:30:00,12.8,12.8,12.8,63.0,6.0,2.2,5.4,202.5,0.0,0.0,1004.9,20.9,36.0,410,2.7
2016-05-02 13:35:00,13.1,13.1,13.1,62.0,6.0,2.2,6.3,225,0.0,0.0,1005.1,21.1,36.0,465,2.6
2016-05-02 13:40:00,13.3,13.3,13.3,59.0,5.5,2.2,8.5,225,0.0,0.0,1005.1,21.1,36.0,469,2.8
2016-05-02 13:45:00,13.1,13.1,13.1,59.0,5.2,2.7,7.2,225,0.0,0.0,1005.0,21.1,35.0,293,2.3
2016-05-02 13:50:00,13.0,13.0,13.0,59.0,5.2,2.2,5.4,270,0.0,0.0,1004.9,20.9,35.0,339,2.6
2016-05-02 13:55:00,13.1,13.1,13.1,58.0,5.0,2.7,5.8,225,0.0,0.0,1005.1,20.8,35.0,298,2.7
2016-05-02 14:00:00,13.0,13.0,13.0,57.0,4.7,3.6,8.5,270,0.0,0.0,1005.0,20.7,34.0,529,3.4
2016-05-02 14:05:00,13.3,13.3,13.3,55.0,4.4,4.0,8.9,247.5,0.0,0.0,1005.0,20.6,34.0,807,4
2016-05-02 14:10:00,13.3,13.3,13.3,55.0,4.5,4.0,8.5,225,0.0,0.0,1005.0,20.5,34.0,135,3.1
2016-05-02 14:15:00,13.4,13.4,13.4,54.0,4.3,3.6,8.0,247.5,0.0,0.0,1005.1,20.4,34.0,795,3.4
2016-05-02 14:20:00,13.4,13.4,13.4,54.0,4.3,3.6,7.2,247.5,0.0,0.0,1005.0,20.3,34.0,766,3.5
2016-05-02 14:25:00,13.8,13.8,13.8,53.0,4.4,3.6,8.0,270,0.0,0.0,1005.0,20.3,34.0,817,3.8
2016-05-02 14:30:00,14.2,14.2,14.2,53.0,4.8,4.0,10.3,270,0.0,0.0,1005.0,20.2,34.0,804,3.8
2016-05-02 14:35:00,14.2,14.2,14.2,51.0,4.2,4.0,10.3,315,0.0,0.0,1004.9,20.2,33.0,756,3.6
2016-05-02 14:40:00,14.2,14.2,14.2,49.0,3.6,3.6,9.8,270,0.0,0.0,1005.0,19.9,33.0,742,3.4
2016-05-02 14:45:00,13.9,13.9,13.9,50.0,3.7,3.6,10.3,247.5,0.0,0.0,1004.9,19.8,33.0,696,2.9
2016-05-02 14:50:00,14.1,14.1,14.1,51.0,4.1,4.0,10.3,270,0.0,0.0,1005.2,19.7,33.0,667,3.2
2016-05-02 14:55:00,13.8,13.8,13.8,52.0,4.1,3.6,9.8,292.5,0.0,0.0,1005.1,19.7,34.0,676,2.9
2016-05-02 15:00:00,13.7,13.7,13.7,53.0,4.3,4.0,6.7,270,0.0,0.0,1005.0,19.7,34.0,697,2.8
2016-05-02 15:05:00,13.9,13.9,13.9,53.0,4.5,3.6,10.7,270,0.0,0.0,1005.0,19.7,35.0,656,2.9
2016-05-02 15:10:00,14.2,14.2,14.2,51.0,4.2,3.1,8.0,202.5,0.0,0.0,1004.9,19.8,34.0,647,2.8
2016-05-02 15:15:00,14.0,14.0,14.0,51.0,4.0,3.1,7.2,225,0.0,0.0,1005.0,19.8,34.0,590,2.1
2016-05-02 15:20:00,13.7,13.7,13.7,50.0,3.4,4.5,8.5,270,0.0,0.0,1005.1,19.7,33.0,346,2.1
2016-05-02 15:25:00,13.2,13.2,13.2,51.0,3.3,3.6,7.2,292.5,0.0,0.0,1004.9,19.7,33.0,178,1.4
2016-05-02 15:30:00,13.1,13.1,13.1,49.0,2.6,4.0,8.5,247.5,0.0,0.0,1005.1,19.7,33.0,335,1.6
2016-05-02 15:35:00,12.9,12.9,12.9,52.0,3.3,4.5,8.9,270,0.0,0.0,1005.1,19.6,33.0,163,1.7
2016-05-02 15:40:00,13.0,13.0,13.0,50.0,2.8,3.1,7.2,292.5,0.0,0.0,1005.1,19.6,33.0,259,1.7
2016-05-02 15:45:00,13.4,13.4,13.4,48.0,2.6,3.1,6.7,270,0.0,0.0,1005.2,19.7,33.0,597,2.1
2016-05-02 15:50:00,13.7,13.7,13.7,47.0,2.6,3.1,8.0,247.5,0.0,0.0,1005.3,19.7,32.0,552,1.9
2016-05-02 15:55:00,13.7,13.7,13.7,48.0,2.9,3.6,7.2,270,0.0,0.0,1005.2,19.7,32.0,563,1.8
2016-05-02 16:00:00,13.8,13.8,13.8,48.0,3.0,3.6,8.0,247.5,0.0,0.0,1005.2,19.7,32.0,554,1.7
2016-05-02 16:05:00,14.1,14.1,14.1,48.0,3.2,3.1,8.5,225,0.0,0.0,1005.1,19.8,33.0,564,1.6
2016-05-02 16:10:00,13.7,13.7,13.7,49.0,3.2,3.6,9.8,270,0.0,0.0,1005.1,19.9,32.0,509,1.5
2016-05-02 16:15:00,13.9,13.9,13.9,51.0,3.9,2.7,8.0,315,0.0,0.0,1005.2,19.9,32.0,522,1.3
2016-05-02 16:20:00,13.7,13.7,13.7,51.0,3.7,3.1,6.7,270,0.0,0.0,1005.2,19.8,33.0,533,1.2
2016-05-02 16:25:00,13.7,13.7,13.7,49.0,3.2,1.8,5.8,292.5,0.0,0.0,1005.3,19.8,33.0,486,1.1
2016-05-02 16:30:00,13.6,13.6,13.6,47.0,2.5,3.1,6.3,270,0.0,0.0,1005.4,19.7,32.0,496,1
2016-05-02 16:35:00,13.4,13.4,13.4,47.0,2.4,3.6,8.5,225,0.0,0.0,1005.4,19.7,32.0,453,1
2016-05-02 16:40:00,13.2,13.2,13.2,49.0,2.7,3.6,13.0,202.5,0.0,0.0,1005.4,19.7,32.0,319,0.7
2016-05-02 16:45:00,13.1,13.1,13.1,50.0,2.9,3.1,8.9,270,0.0,0.0,1005.3,19.7,32.0,432,0.8
2016-05-02 16:50:00,13.1,13.1,13.1,51.0,3.2,4.0,8.9,292.5,0.0,0.0,1005.5,19.7,32.0,384,0.8
2016-05-02 16:55:00,13.1,13.1,13.1,51.0,3.1,3.6,8.0,270,0.0,0.0,1005.4,19.6,32.0,375,0.8
2016-05-02 17:00:00,12.9,12.9,12.9,51.0,3.0,3.6,8.0,247.5,0.0,0.0,1005.3,19.4,32.0,368,0.7
2016-05-02 17:05:00,13.0,13.0,13.0,51.0,3.1,3.6,10.3,292.5,0.0,0.0,1005.5,19.4,32.0,367,0.4
2016-05-02 17:10:00,12.7,12.7,12.7,52.0,3.1,4.0,9.8,270,0.0,0.0,1005.6,19.4,32.0,284,0.4
2016-05-02 17:15:00,12.6,12.6,12.6,52.0,3.0,4.0,8.5,247.5,0.0,0.0,1005.7,19.4,32.0,340,0.3
2016-05-02 17:20:00,12.5,12.5,12.5,54.0,3.4,4.0,8.9,315,0.0,0.0,1005.8,19.3,33.0,309,0.1
2016-05-02 17:25:00,12.4,12.4,12.4,54.0,3.4,4.0,8.9,292.5,0.0,0.0,1005.7,19.2,33.0,281,0
2016-05-02 17:30:00,12.4,12.4,12.4,54.0,3.3,3.6,8.9,270,0.0,0.0,1005.7,19.2,33.0,265,0
2016-05-02 17:35:00,12.3,12.3,12.3,55.0,3.5,2.7,8.0,202.5,0.0,0.0,1005.7,19.1,33.0,249,0
2016-05-02 17:40:00,12.2,12.2,12.2,56.0,3.7,4.0,8.0,270,0.0,0.0,1005.8,19.1,34.0,238,0
2016-05-02 17:45:00,12.1,12.1,12.1,56.0,3.6,2.7,7.2,315,0.0,0.0,1005.8,19.0,34.0,224,0
2016-05-02 17:50:00,12.0,12.0,12.0,57.0,3.7,2.7,5.4,247.5,0.0,0.0,1005.9,18.9,34.0,80,0
2016-05-02 17:55:00,11.9,11.9,11.9,58.0,3.9,2.7,6.3,225,0.0,0.0,1005.8,19.0,35.0,94,0
2016-05-02 18:00:00,11.9,11.9,11.9,58.0,3.9,1.8,5.8,292.5,0.0,0.0,1005.8,19.2,35.0,221,0
2016-05-02 18:05:00,12.0,12.0,12.0,56.0,3.5,3.1,8.9,292.5,0.0,0.0,1005.9,19.3,34.0,183,0
2016-05-02 18:10:00,11.9,11.9,11.9,55.0,3.1,4.0,9.4,270,0.0,0.0,1005.9,19.3,33.0,116,0
2016-05-02 18:15:00,11.8,11.8,11.8,55.0,3.0,3.1,8.0,292.5,0.0,0.0,1006.0,19.2,33.0,138,0
2016-05-02 18:20:00,11.7,11.7,11.7,55.0,2.9,3.6,8.0,225,0.0,0.0,1006.0,19.2,33.0,132,0
2016-05-02 18:25:00,11.6,11.6,11.6,56.0,3.1,3.1,8.0,247.5,0.0,0.0,1006.1,19.2,33.0,109,0
2016-05-02 18:30:00,11.4,11.4,11.4,56.0,3.0,4.5,8.9,270,0.0,0.0,1006.2,19.2,33.0,95,0
2016-05-02 18:35:00,11.3,11.3,11.3,56.0,2.9,3.6,7.2,270,0.0,0.0,1006.2,19.2,33.0,81,0
2016-05-02 18:40:00,11.2,11.2,11.2,56.0,2.8,2.7,4.9,270,0.0,0.0,1006.4,19.2,33.0,66,0
2016-05-02 18:45:00,11.1,11.1,11.1,57.0,2.9,3.1,7.2,225,0.0,0.0,1006.4,19.2,33.0,59,0
2016-05-02 18:50:00,10.9,10.9,10.9,58.0,3.0,4.0,10.3,270,0.0,0.0,1006.7,19.2,33.0,47,0
2016-05-02 18:55:00,10.7,10.7,10.7,59.0,3.0,3.6,8.0,270,0.0,0.0,1006.7,19.1,33.0,35,0
2016-05-02 19:00:00,10.4,10.4,10.4,60.0,3.0,3.1,8.0,247.5,0.0,0.0,1006.8,19.0,34.0,27,0
2016-05-02 19:05:00,10.3,10.3,10.3,61.0,3.1,3.1,8.9,247.5,0.0,0.0,1006.9,18.9,34.0,20,0
2016-05-02 19:10:00,10.1,10.1,10.1,62.0,3.1,3.1,8.5,270,0.0,0.0,1007.1,18.8,34.0,17,0
2016-05-02 19:15:00,9.8,8.0,9.8,62.0,2.9,3.6,9.4,247.5,0.0,0.0,1007.1,18.7,34.0,13,0
2016-05-02 19:20:00,9.7,8.3,9.7,63.0,3.0,2.7,8.5,247.5,0.0,0.0,1007.1,18.5,35.0,11,0
2016-05-02 19:25:00,9.6,8.2,9.6,65.0,3.3,2.7,7.2,292.5,0.0,0.0,1007.2,18.4,35.0,9,0
2016-05-02 19:30:00,9.5,8.8,9.5,65.0,3.2,1.8,6.3,225,0.0,0.0,1007.2,18.3,36.0,7,0
2016-05-02 19:35:00,9.4,8.0,9.4,66.0,3.4,2.7,5.8,247.5,0.0,0.0,1007.3,18.4,36.0,5,0
2016-05-02 19:40:00,9.3,7.8,9.3,66.0,3.3,2.7,7.2,270,0.0,0.0,1007.3,18.2,36.0,2,0
2016-05-02 19:45:00,9.2,7.5,9.2,67.0,3.4,3.1,8.5,270,0.0,0.0,1007.3,18.2,36.0,0,0
2016-05-02 19:50:00,9.2,7.7,9.2,68.0,3.6,2.7,6.7,270,0.0,0.0,1007.5,18.1,37.0,0,0
2016-05-02 19:55:00,9.1,7.9,9.1,68.0,3.5,2.2,5.8,247.5,0.0,0.0,1007.6,17.9,37.0,0,0
2016-05-02 20:00:00,9.0,7.8,9.0,69.0,3.6,2.2,5.4,247.5,0.0,0.0,1007.8,17.8,37.0,0,0
2016-05-02 20:05:00,8.9,7.8,8.9,69.0,3.6,2.2,4.9,270,0.0,0.0,1007.8,17.7,37.0,0,0
2016-05-02 20:10:00,8.8,7.0,8.8,69.0,3.5,3.1,6.3,247.5,0.0,0.0,1007.7,17.7,37.0,0,0
2016-05-02 20:15:00,8.8,7.6,8.8,70.0,3.6,2.2,6.3,225,0.0,0.0,1007.9,17.6,38.0,0,0
2016-05-02 20:20:00,8.7,7.2,8.7,70.0,3.6,2.7,6.3,270,0.0,0.0,1008.1,17.5,38.0,0,0
2016-05-02 20:25:00,8.7,7.4,8.7,70.0,3.5,2.2,4.5,270,0.0,0.0,1008.1,17.5,38.0,0,0
2016-05-02 20:30:00,8.6,8.6,8.6,70.0,3.4,1.3,4.9,270,0.0,0.0,1008.1,17.5,38.0,0,0
2016-05-02 20:35:00,8.4,7.2,8.4,70.0,3.3,2.2,5.8,225,0.0,0.0,1008.1,17.5,38.0,0,0
2016-05-02 20:40:00,8.4,7.5,8.4,70.0,3.2,1.8,5.8,247.5,0.0,0.0,1008.1,17.4,38.0,0,0
2016-05-02 20:45:00,8.3,8.3,8.3,70.0,3.1,1.3,4.9,292.5,0.0,0.0,1008.1,17.4,38.0,0,0
2016-05-02 20:50:00,8.2,6.9,8.2,70.0,3.1,2.2,4.9,247.5,0.0,0.0,1008.3,17.3,37.0,0,0
2016-05-02 20:55:00,8.1,6.1,8.1,68.0,2.5,3.1,6.7,247.5,0.0,0.0,1008.3,17.2,36.0,0,0
2016-05-02 21:00:00,8.0,6.7,8.0,67.0,2.2,2.2,5.4,270,0.0,0.0,1008.5,17.1,36.0,0,0
2016-05-02 21:05:00,8.0,6.7,8.0,67.0,2.2,2.2,4.9,247.5,0.0,0.0,1008.4,16.8,36.0,0,0
2016-05-02 21:10:00,7.9,6.6,7.9,67.0,2.2,2.2,4.5,292.5,0.0,0.0,1008.6,16.7,37.0,0,0
2016-05-02 21:15:00,7.9,6.6,7.9,66.0,2.0,2.2,4.9,247.5,0.0,0.0,1008.7,16.8,37.0,0,0
2016-05-02 21:20:00,7.9,7.0,7.9,67.0,2.2,1.8,4.9,247.5,0.0,0.0,1008.8,16.8,37.0,0,0
2016-05-02 21:25:00,7.9,7.9,7.9,67.0,2.1,1.3,4.5,247.5,0.0,0.0,1008.7,16.8,37.0,0,0
2016-05-02 21:30:00,7.8,6.9,7.8,68.0,2.3,1.8,5.4,225,0.0,0.0,1008.8,16.9,38.0,0,0
2016-05-02 21:35:00,7.8,7.8,7.8,69.0,2.5,0.9,4.9,247.5,0.0,0.0,1008.7,16.9,38.0,0,0
2016-05-02 21:40:00,7.7,6.7,7.7,70.0,2.6,1.8,4.9,270,0.0,0.0,1008.8,16.9,38.0,0,0
2016-05-02 21:45:00,7.7,6.7,7.7,70.0,2.5,1.8,4.5,180,0.0,0.0,1008.9,16.9,38.0,0,0
2016-05-02 21:50:00,7.6,7.6,7.6,70.0,2.5,1.3,5.4,202.5,0.0,0.0,1008.9,16.9,38.0,0,0
2016-05-02 21:55:00,7.6,7.6,7.6,71.0,2.6,0.9,3.6,202.5,0.0,0.0,1009.0,16.9,38.0,0,0
2016-05-02 22:00:00,7.5,6.5,7.5,71.0,2.6,1.8,4.0,292.5,0.0,0.0,1009.0,16.9,38.0,0,0
2016-05-02 22:05:00,7.4,7.4,7.4,71.0,2.5,0.9,2.7,292.5,0.0,0.0,1009.1,16.8,38.0,0,0
2016-05-02 22:10:00,7.4,7.4,7.4,72.0,2.7,0.9,3.6,247.5,0.0,0.0,1009.1,16.7,38.0,0,0
2016-05-02 22:15:00,7.3,7.3,7.3,72.0,2.6,0.9,4.9,225,0.0,0.0,1009.2,16.7,39.0,0,0
2016-05-02 22:20:00,7.3,7.3,7.3,72.0,2.6,0.4,2.7,202.5,0.0,0.0,1009.2,16.7,39.0,0,0